Modesto City Co-Harry Sham Field Modesto US
ICAO: KMOD
IATA: MOD
Category: Medium
Scheduled Services: Yes

Elevation: 97 ft
TransAlt. 18000 ft.

Airport Communications:
NORCAL APP/DEP:36.32
NORCAL APP/DEP:120.95
ASOS:127.7
ATIS:127.7
CTAF:125.3
GND:121.7
RANCHO RDO:114.6
TWR:125.3
UNICOM:122.95

KMOD Zoom In..

If you have problems with the map follow the link
https://www.worldairports.se/pages/airport.php?
ICAO=KMOD

Runways:

(A) RW 10L length 5904 ft width 150 ft
---- / hdg 108

(B) RW 10R length 3464 ft width 100 ft
---- / hdg 108

(C) RW 28L length 3464 ft width 100 ft
---- / hdg 288

(D) RW 28R length 5904 ft width 150 ft
ILS 111.90 / hdg 288

Location; KMOD
Day. 22 / Time. 15.53 Zulu
* Altimeter: 30.07
* Temperature: 04° c. 39.2°f.
* Wind from: 310° Speed 11 kn.
Dewpoint: -04° c.
Visibility: 10 Statute Miles.
Clouds: Clear (automated report).

KMOD 221553Z 31011KT 10SM CLR 04/M04 A3007 RMK AO2 SLP184 T00391044


Wind From 310°
Speed 11 kn.

 
 
jpsmedia.com for Web Design worldairports.se 2019   terms of use